Historique des stations

Station météo de Varennes-sur-Fouzon

Altitude de la station : 118 m







Données météorologiques pour le 05/12/2021
Date
Heure
Températures Humidité Point de rosée Vitesse
du vent
Direction Rafales Windchill Pression Pluviométrie
Cumul
Date
Heure
Températures Humidité Point de rosée Vitesse
du vent
Direction Rafales Windchill Pression Pluviométrie
Cumul
05/12/2021 12:106.2 °C86 %4.1 °C12 km/hOSO23 km/h3.61008 hPa0.0 mm
05/12/2021 12:005.7 °C86 %3.6 °C11 km/hOSO24 km/h3.01008 hPa0.0 mm
05/12/2021 11:405.5 °C87 %3.5 °C11 km/hOSO26 km/h2.71008 hPa0.0 mm
05/12/2021 11:305.2 °C87 %3.2 °C10 km/hOSO23 km/h2.51008 hPa0.0 mm
05/12/2021 11:104.8 °C88 %3.0 °C9 km/hOSO21 km/h2.41008 hPa0.0 mm
05/12/2021 11:004.2 °C89 %2.6 °C8 km/hOSO19 km/h1.91008 hPa0.0 mm
05/12/2021 10:403.7 °C90 %2.2 °C9 km/hOSO19 km/h1.11008 hPa0.0 mm
05/12/2021 10:303.6 °C91 %2.3 °C8 km/hOSO16 km/h1.51007 hPa0.0 mm
05/12/2021 10:103.6 °C91 %2.2 °C8 km/hOSO18 km/h1.11008 hPa0.0 mm
05/12/2021 10:003.3 °C91 %2.0 °C8 km/hOSO19 km/h0.61008 hPa0.0 mm
05/12/2021 09:403.1 °C92 %1.9 °C7 km/hOSO18 km/h0.81007 hPa0.0 mm
05/12/2021 09:302.8 °C93 %1.8 °C6 km/h21 km/h2.81007 hPa0.0 mm
05/12/2021 09:102.6 °C93 %1.6 °C7 km/hOSO16 km/h2.61007 hPa0.0 mm
05/12/2021 09:002.6 °C93 %1.6 °C7 km/hOSO16 km/h2.61007 hPa0.0 mm
05/12/2021 08:402.7 °C93 %1.7 °C7 km/hOSO16 km/h2.71007 hPa0.0 mm
05/12/2021 08:302.7 °C93 %1.6 °C7 km/hOSO19 km/h0.21007 hPa0.0 mm
05/12/2021 08:102.6 °C93 %1.5 °C7 km/hOSO15 km/h2.61007 hPa0.0 mm
05/12/2021 08:002.8 °C92 %1.6 °C7 km/hOSO16 km/h2.81007 hPa0.0 mm
05/12/2021 07:402.9 °C92 %1.7 °C7 km/hOSO15 km/h2.91007 hPa0.0 mm
05/12/2021 07:303.1 °C92 %1.9 °C7 km/hOSO18 km/h0.81007 hPa0.0 mm
05/12/2021 07:103.3 °C92 %2.1 °C7 km/hOSO19 km/h1.01007 hPa0.0 mm
05/12/2021 07:003.4 °C92 %2.3 °C6 km/hOSO19 km/h3.41007 hPa0.0 mm
05/12/2021 06:403.6 °C91 %2.2 °C6 km/hOSO13 km/h3.61007 hPa0.0 mm
05/12/2021 06:303.7 °C91 %2.3 °C6 km/hOSO15 km/h3.71006 hPa0.0 mm
05/12/2021 06:103.6 °C92 %2.4 °C5 km/hOSO16 km/h3.61006 hPa0.0 mm
05/12/2021 06:003.4 °C93 %2.4 °C5 km/hOSO10 km/h3.41006 hPa0.0 mm
05/12/2021 05:403.5 °C92 %2.3 °C5 km/hOSO10 km/h3.51006 hPa0.0 mm
05/12/2021 05:303.4 °C93 %2.4 °C5 km/hOSO13 km/h3.41006 hPa0.0 mm
05/12/2021 05:103.7 °C92 %2.5 °C4 km/hOSO19 km/h3.71006 hPa0.0 mm
05/12/2021 05:003.7 °C92 %2.5 °C4 km/hOSO16 km/h3.71006 hPa0.0 mm
05/12/2021 04:403.7 °C92 %2.5 °C4 km/hOSO15 km/h3.71006 hPa0.0 mm
05/12/2021 04:303.7 °C92 %2.5 °C4 km/hOSO13 km/h3.71006 hPa0.0 mm
05/12/2021 04:103.7 °C92 %2.5 °C4 km/hOSO15 km/h3.71006 hPa0.0 mm
05/12/2021 04:003.8 °C92 %2.6 °C5 km/hOSO11 km/h3.81006 hPa0.0 mm
05/12/2021 03:403.8 °C92 %2.7 °C5 km/hOSO15 km/h3.81006 hPa0.0 mm
05/12/2021 03:303.9 °C92 %2.7 °C5 km/hOSO15 km/h3.91006 hPa0.0 mm
05/12/2021 03:103.8 °C92 %2.7 °C5 km/hOSO16 km/h3.81007 hPa0.0 mm
05/12/2021 03:00---5 km/h---0 hPa0.0 mm
05/12/2021 02:303.4 °C92 %2.3 °C5 km/hSO13 km/h3.41007 hPa0.0 mm
05/12/2021 02:103.5 °C92 %2.3 °C5 km/hSO16 km/h3.51007 hPa0.0 mm
05/12/2021 02:003.6 °C92 %2.4 °C6 km/hOSO21 km/h3.61007 hPa0.0 mm
05/12/2021 01:40---5 km/h---0 hPa0.0 mm
05/12/2021 01:103.3 °C92 %2.2 °C6 km/hSO16 km/h3.31008 hPa0.0 mm
05/12/2021 01:003.4 °C93 %2.4 °C5 km/hSO18 km/h3.41008 hPa-
05/12/2021 00:403.5 °C92 %2.3 °C5 km/hSO13 km/h3.51008 hPa6.0 mm
05/12/2021 00:303.5 °C92 %2.3 °C5 km/hSO15 km/h3.51008 hPa6.0 mm
05/12/2021 00:10---5 km/h---0 hPa6.0 mm


Minima :

Température : 2.6 °C
Humidité : 86 %
Point de rosée : 1.5 °C
Vent moyen : 4 km/h
Windchill : 0.2
Pression atm. : 0 hPa
Maxima :

Température : 6.2 °C
Humidité : 93 %
Point de rosée : 4.1 °C
Vent moyen : 12 km/h
Windchill : 3.9
Pression atm. : 1008 hPa
Rafales max : 26 km/h
Cumul de pluie sur 24H : 6.0 mm

Varennes sur fouzon est une commune du département Indre (36).
La station météorologique du réseau de l'association la plus proche de Varennes-sur-Fouzon est celle de Vicq-sur-Nahon



Icône Facebook Association Météo Centre Icône Twitter Association Météo Centre Icône Chaîne Youtube Association Météo Centre Icône contact Association Météo Centre Icône Insta Association Météo Centre